Location: Unspecified
(0.0000°N, 0.0000°E)
Time: 14:24:37
(UTC+00:00)

ISS - Pass Details

Date: 17 April 2021
Orbit: 418 x 422 km, 51.6° (Epoch: 16 April)

Event Time Altitude Azimuth Distance (km) Brightness Sun altitude
Exits shadow 04:18:10 11° 148° (SSE) 1,425 -0.9 -24.9°
Maximum altitude 04:19:20 13° 126° (SE) 1,335 -0.7 -24.6°
Drops below altitude 10° 04:20:56 10° 98° (E) 1,495 0.0 -24.2°
Sets 04:23:57 0° 68° (ENE) 2,356 1.4 -23.5°
